Wetterdaten: Dienstag, 21.05.2013
Datum Zeit Temperatur Luftfeuchte Luftdruck Regen Wind Richtung Richtung Taupunkt Windchill Windben
21.05.2013 00:00 5,1 C 96 % 1016,5 hPa 0,0 l/m 0,2 km/h (0 Bft) W 270 4,5 C 5,1 C 0,0 km/h (0 Bft)
21.05.2013 00:05 5,2 C 96 % 1016,4 hPa 0,0 l/m 0,0 km/h (0 Bft) W-SW 247 4,6 C 5,1 C 0,0 km/h (0 Bft)
21.05.2013 00:10 5,2 C 96 % 1016,4 hPa 0,0 l/m 0,2 km/h (0 Bft) NW 315 4,6 C 5,1 C 0,0 km/h (0 Bft)
21.05.2013 00:15 5,2 C 96 % 1016,4 hPa 0,0 l/m 0,0 km/h (0 Bft) NO 45 4,6 C 5,1 C 0,0 km/h (0 Bft)
21.05.2013 00:20 5,3 C 96 % 1016,4 hPa 0,0 l/m 0,0 km/h (0 Bft) W-NW 292 4,7 C 5,2 C 0,0 km/h (0 Bft)
21.05.2013 00:25 5,3 C 96 % 1016,6 hPa 0,0 l/m 0,0 km/h (0 Bft) O-SO 112 4,7 C 5,2 C 2,1 km/h (1 Bft)
21.05.2013 00:30 5,4 C 96 % 1016,6 hPa 0,0 l/m 0,0 km/h (0 Bft) N-NO 22 4,8 C 5,3 C 0,0 km/h (0 Bft)
21.05.2013 00:35 5,4 C 96 % 1016,6 hPa 0,0 l/m 0,0 km/h (0 Bft) NO 45 4,8 C 5,3 C 0,0 km/h (0 Bft)
21.05.2013 00:40 5,4 C 96 % 1016,6 hPa 0,0 l/m 0,0 km/h (0 Bft) W-SW 247 4,8 C 5,3 C 0,0 km/h (0 Bft)
21.05.2013 00:45 5,4 C 96 % 1016,5 hPa 0,0 l/m 0,2 km/h (0 Bft) W-SW 247 4,8 C 5,4 C 2,6 km/h (1 Bft)
21.05.2013 00:50 5,4 C 96 % 1016,5 hPa 0,0 l/m 0,2 km/h (0 Bft) S 180 4,8 C 5,3 C 0,0 km/h (0 Bft)
21.05.2013 00:55 5,3 C 96 % 1016,5 hPa 0,0 l/m 0,5 km/h (0 Bft) SO 135 4,7 C 5,3 C 2,6 km/h (1 Bft)
21.05.2013 01:00 5,1 C 96 % 1016,5 hPa 0,0 l/m 0,5 km/h (0 Bft) S-SW 202 4,5 C 5,1 C 2,4 km/h (1 Bft)
21.05.2013 01:05 5,0 C 96 % 1016,2 hPa 0,0 l/m 0,5 km/h (0 Bft) O-SO 112 4,4 C 5,0 C 0,0 km/h (0 Bft)
21.05.2013 01:10 4,8 C 97 % 1016,2 hPa 0,0 l/m 0,5 km/h (0 Bft) N-NO 22 4,4 C 4,7 C 0,0 km/h (0 Bft)
21.05.2013 01:15 4,5 C 97 % 1016,2 hPa 0,0 l/m 0,0 km/h (0 Bft) O 90 4,1 C 4,4 C 2,7 km/h (1 Bft)
21.05.2013 01:20 4,4 C 97 % 1016,2 hPa 0,0 l/m 0,0 km/h (0 Bft) SW 225 4,0 C 4,1 C 0,0 km/h (0 Bft)
21.05.2013 01:25 4,3 C 97 % 1016,4 hPa 0,0 l/m 0,3 km/h (0 Bft) N-NO 22 3,9 C 4,1 C 3,5 km/h (1 Bft)
21.05.2013 01:30 4,2 C 97 % 1016,4 hPa 0,0 l/m 0,6 km/h (0 Bft) W 270 3,8 C 4,1 C 0,0 km/h (0 Bft)
21.05.2013 01:35 4,3 C 97 % 1016,4 hPa 0,0 l/m 1,1 km/h (1 Bft) O-SO 112 3,9 C 4,2 C 5,6 km/h (1 Bft)
21.05.2013 01:40 4,5 C 97 % 1016,4 hPa 0,0 l/m 2,3 km/h (1 Bft) S 180 4,1 C 4,3 C 4,3 km/h (1 Bft)
21.05.2013 01:45 4,7 C 97 % 1016,6 hPa 0,0 l/m 2,6 km/h (1 Bft) N 360 4,3 C 4,4 C 6,1 km/h (2 Bft)
21.05.2013 01:50 4,7 C 97 % 1016,6 hPa 0,0 l/m 1,6 km/h (1 Bft) S 180 4,3 C 4,6 C 0,0 km/h (0 Bft)
21.05.2013 01:55 4,9 C 97 % 1016,6 hPa 0,0 l/m 0,6 km/h (0 Bft) NO 45 4,5 C 4,6 C 0,0 km/h (0 Bft)
21.05.2013 02:00 5,0 C 96 % 1016,6 hPa 0,0 l/m 0,6 km/h (0 Bft) O 90 4,4 C 4,8 C 0,0 km/h (0 Bft)
21.05.2013 02:05 5,0 C 96 % 1016,3 hPa 0,0 l/m 0,5 km/h (0 Bft) O-SO 112 4,4 C 4,8 C 0,0 km/h (0 Bft)
21.05.2013 02:10 5,0 C 96 % 1016,3 hPa 0,0 l/m 0,2 km/h (0 Bft) O 90 4,4 C 4,8 C 0,0 km/h (0 Bft)
21.05.2013 02:15 5,0 C 96 % 1016,3 hPa 0,0 l/m 0,2 km/h (0 Bft) O-SO 112 4,4 C 4,8 C 0,0 km/h (0 Bft)
21.05.2013 02:20 5,1 C 96 % 1016,3 hPa 0,0 l/m 0,8 km/h (0 Bft) O-NO 67 4,5 C 5,0 C 2,4 km/h (1 Bft)
21.05.2013 02:25 5,2 C 96 % 1016,2 hPa 0,0 l/m 0,8 km/h (0 Bft) N-NW 337 4,6 C 5,1 C 0,0 km/h (0 Bft)
21.05.2013 02:30 5,3 C 96 % 1016,2 hPa 0,0 l/m 0,5 km/h (0 Bft) SO 135 4,7 C 5,1 C 2,1 km/h (1 Bft)
21.05.2013 02:35 5,3 C 97 % 1016,2 hPa 0,0 l/m 0,5 km/h (0 Bft) O 90 4,9 C 5,2 C 0,0 km/h (0 Bft)
21.05.2013 02:40 5,4 C 97 % 1016,2 hPa 0,0 l/m 0,3 km/h (0 Bft) NO 45 5,0 C 5,3 C 0,0 km/h (0 Bft)
21.05.2013 02:45 5,4 C 97 % 1016,1 hPa 0,0 l/m 0,0 km/h (0 Bft) O 90 5,0 C 5,3 C 0,0 km/h (0 Bft)
21.05.2013 02:50 5,4 C 97 % 1016,1 hPa 0,0 l/m 0,0 km/h (0 Bft) S-SW 202 5,0 C 5,4 C 0,0 km/h (0 Bft)
21.05.2013 02:55 5,4 C 97 % 1016,1 hPa 0,0 l/m 0,0 km/h (0 Bft) NO 45 5,0 C 5,4 C 0,0 km/h (0 Bft)
21.05.2013 03:00 5,5 C 97 % 1016,1 hPa 0,0 l/m 0,0 km/h (0 Bft) S-SW 202 5,1 C 5,4 C 0,0 km/h (0 Bft)
21.05.2013 03:05 5,5 C 97 % 1015,9 hPa 0,0 l/m 0,0 km/h (0 Bft) W-SW 247 5,1 C 5,4 C 0,0 km/h (0 Bft)
21.05.2013 03:10 5,6 C 97 % 1015,9 hPa 0,0 l/m 0,3 km/h (0 Bft) W-NW 292 5,2 C 5,4 C 0,0 km/h (0 Bft)
21.05.2013 03:15 5,6 C 97 % 1015,9 hPa 0,0 l/m 0,3 km/h (0 Bft) SO 135 5,2 C 5,5 C 0,0 km/h (0 Bft)
21.05.2013 03:20 5,6 C 97 % 1015,9 hPa 0,0 l/m 0,5 km/h (0 Bft) S 180 5,2 C 5,5 C 2,3 km/h (1 Bft)
21.05.2013 03:25 5,6 C 97 % 1015,7 hPa 0,0 l/m 0,6 km/h (0 Bft) SO 135 5,2 C 5,5 C 2,4 km/h (1 Bft)
21.05.2013 03:30 5,6 C 97 % 1015,7 hPa 0,0 l/m 1,0 km/h (0 Bft) S-SW 202 5,2 C 5,6 C 1,8 km/h (1 Bft)
21.05.2013 03:35 5,6 C 97 % 1015,7 hPa 0,0 l/m 0,5 km/h (0 Bft) NO 45 5,2 C 5,6 C 0,0 km/h (0 Bft)
21.05.2013 03:40 5,5 C 97 % 1015,7 hPa 0,0 l/m 0,5 km/h (0 Bft) O-NO 67 5,1 C 5,5 C 0,0 km/h (0 Bft)
21.05.2013 03:45 5,4 C 97 % 1015,6 hPa 0,0 l/m 0,5 km/h (0 Bft) O 90 5,0 C 5,4 C 0,0 km/h (0 Bft)
21.05.2013 03:50 5,2 C 97 % 1015,6 hPa 0,0 l/m 0,0 km/h (0 Bft) NO 45 4,8 C 5,2 C 0,0 km/h (0 Bft)
21.05.2013 03:55 5,1 C 97 % 1015,6 hPa 0,0 l/m 0,0 km/h (0 Bft) O-NO 67 4,7 C 5,1 C 0,0 km/h (0 Bft)
21.05.2013 04:00 4,9 C 97 % 1015,6 hPa 0,0 l/m 0,0 km/h (0 Bft) S-SW 202 4,5 C 5,1 C 0,0 km/h (0 Bft)
21.05.2013 04:05 4,9 C 97 % 1015,2 hPa 0,0 l/m 0,0 km/h (0 Bft) N-NW 337 4,5 C 4,9 C 0,0 km/h (0 Bft)
21.05.2013 04:10 4,9 C 97 % 1015,2 hPa 0,0 l/m 0,2 km/h (0 Bft) W 270 4,5 C 4,8 C 0,0 km/h (0 Bft)
21.05.2013 04:15 4,8 C 97 % 1015,2 hPa 0,0 l/m 0,2 km/h (0 Bft) S-SO 157 4,4 C 4,8 C 0,0 km/h (0 Bft)
21.05.2013 04:20 4,7 C 97 % 1015,2 hPa 0,0 l/m 0,0 km/h (0 Bft) O 90 4,3 C 4,7 C 0,0 km/h (0 Bft)
21.05.2013 04:25 4,7 C 97 % 1015,1 hPa 0,0 l/m 0,0 km/h (0 Bft) S-SW 202 4,3 C 4,6 C 0,0 km/h (0 Bft)
21.05.2013 04:30 4,5 C 97 % 1015,1 hPa 0,0 l/m 0,2 km/h (0 Bft) SW 225 4,1 C 4,5 C 2,3 km/h (1 Bft)
21.05.2013 04:35 4,5 C 97 % 1015,1 hPa 0,0 l/m 0,3 km/h (0 Bft) O-NO 67 4,1 C 4,4 C 0,0 km/h (0 Bft)
21.05.2013 04:40 4,5 C 97 % 1015,1 hPa 0,0 l/m 0,2 km/h (0 Bft) SO 135 4,1 C 4,1 C 0,0 km/h (0 Bft)
21.05.2013 04:45 4,4 C 97 % 1014,9 hPa 0,0 l/m 0,0 km/h (0 Bft) SO 135 4,0 C 4,1 C 0,0 km/h (0 Bft)
21.05.2013 04:50 4,1 C 97 % 1014,9 hPa 0,0 l/m 0,3 km/h (0 Bft) S-SO 157 3,7 C 3,9 C 2,3 km/h (1 Bft)
21.05.2013 04:55 4,0 C 97 % 1014,9 hPa 0,0 l/m 0,5 km/h (0 Bft) S-SW 202 3,6 C 3,9 C 0,0 km/h (0 Bft)
21.05.2013 05:00 3,8 C 97 % 1014,9 hPa 0,0 l/m 0,3 km/h (0 Bft) S 180 3,4 C 3,7 C 0,0 km/h (0 Bft)
21.05.2013 05:05 3,8 C 97 % 1014,7 hPa 0,0 l/m 0,2 km/h (0 Bft) O-NO 67 3,4 C 3,5 C 1,6 km/h (1 Bft)
21.05.2013 05:10 3,7 C 97 % 1014,7 hPa 0,0 l/m 0,2 km/h (0 Bft) O-SO 112 3,3 C 3,2 C 0,0 km/h (0 Bft)
21.05.2013 05:15 3,5 C 97 % 1014,7 hPa 0,0 l/m 0,2 km/h (0 Bft) N-NO 22 3,1 C 3,1 C 0,0 km/h (0 Bft)
21.05.2013 05:20 3,4 C 97 % 1014,7 hPa 0,0 l/m 0,2 km/h (0 Bft) NO 45 3,0 C 2,8 C 1,6 km/h (1 Bft)
21.05.2013 05:25 3,5 C 97 % 1014,6 hPa 0,0 l/m 0,2 km/h (0 Bft) O 90 3,1 C 2,8 C 0,0 km/h (0 Bft)
21.05.2013 05:30 3,6 C 97 % 1014,6 hPa 0,0 l/m 0,2 km/h (0 Bft) O-SO 112 3,2 C 2,8 C 0,0 km/h (0 Bft)
21.05.2013 05:35 3,2 C 97 % 1014,6 hPa 0,0 l/m 0,2 km/h (0 Bft) N-NO 22 2,8 C 2,7 C 0,0 km/h (0 Bft)
21.05.2013 05:40 3,0 C 97 % 1014,6 hPa 0,0 l/m 0,0 km/h (0 Bft) N-NO 22 2,6 C 2,5 C 0,0 km/h (0 Bft)
21.05.2013 05:45 2,9 C 98 % 1014,8 hPa 0,0 l/m 0,0 km/h (0 Bft) N-NO 22 2,6 C 2,4 C 0,0 km/h (0 Bft)
21.05.2013 05:50 2,9 C 98 % 1014,8 hPa 0,0 l/m 0,0 km/h (0 Bft) N-NO 22 2,6 C 2,2 C 0,0 km/h (0 Bft)
21.05.2013 05:55 2,7 C 98 % 1014,8 hPa 0,0 l/m 0,0 km/h (0 Bft) NO 45 2,4 C 2,1 C 0,0 km/h (0 Bft)
21.05.2013 06:00 2,8 C 98 % 1014,8 hPa 0,0 l/m 0,0 km/h (0 Bft) W 270 2,5 C 2,8 C 0,0 km/h (0 Bft)
21.05.2013 06:05 2,9 C 98 % 1015,1 hPa 0,0 l/m 0,0 km/h (0 Bft) W 270 2,6 C 3,4 C 0,0 km/h (0 Bft)
21.05.2013 06:10 3,2 C 97 % 1015,1 hPa 0,0 l/m 0,0 km/h (0 Bft) N 360 2,8 C 4,1 C 0,0 km/h (0 Bft)
21.05.2013 06:15 3,9 C 97 % 1015,1 hPa 0,0 l/m 0,0 km/h (0 Bft) N-NW 337 3,5 C 3,9 C 0,0 km/h (0 Bft)
21.05.2013 06:20 6,1 C 96 % 1015,1 hPa 0,0 l/m 0,0 km/h (0 Bft) N-NO 22 5,5 C 3,5 C 0,0 km/h (0 Bft)
21.05.2013 06:25 6,4 C 96 % 1015,3 hPa 0,0 l/m 0,0 km/h (0 Bft) NO 45 5,8 C 4,0 C 0,0 km/h (0 Bft)
21.05.2013 06:30 4,9 C 97 % 1015,3 hPa 0,0 l/m 0,0 km/h (0 Bft) W-NW 292 4,5 C 5,7 C 0,0 km/h (0 Bft)
21.05.2013 06:35 4,9 C 97 % 1015,3 hPa 0,0 l/m 0,0 km/h (0 Bft) N-NO 22 4,5 C 6,9 C 0,0 km/h (0 Bft)
21.05.2013 06:40 7,9 C 95 % 1015,3 hPa 0,0 l/m 0,0 km/h (0 Bft) O 90 7,1 C 8,8 C 0,0 km/h (0 Bft)
21.05.2013 06:45 8,4 C 95 % 1015,4 hPa 0,0 l/m 0,2 km/h (0 Bft) NO 45 7,6 C 9,6 C 0,0 km/h (0 Bft)
21.05.2013 06:50 6,1 C 95 % 1015,4 hPa 0,0 l/m 0,2 km/h (0 Bft) NO 45 5,4 C 9,1 C 0,0 km/h (0 Bft)
21.05.2013 06:55 6,5 C 95 % 1015,4 hPa 0,0 l/m 0,0 km/h (0 Bft) NO 45 5,8 C 8,2 C 0,0 km/h (0 Bft)
21.05.2013 07:00 6,3 C 95 % 1015,4 hPa 0,0 l/m 0,0 km/h (0 Bft) O-NO 67 5,6 C 7,4 C 0,0 km/h (0 Bft)
21.05.2013 07:05 6,7 C 95 % 1015,2 hPa 0,0 l/m 0,2 km/h (0 Bft) O 90 6,0 C 7,4 C 0,0 km/h (0 Bft)
21.05.2013 07:10 7,0 C 95 % 1015,2 hPa 0,0 l/m 0,2 km/h (0 Bft) N-NW 337 6,3 C 7,6 C 0,0 km/h (0 Bft)
21.05.2013 07:15 8,6 C 95 % 1015,2 hPa 0,0 l/m 0,0 km/h (0 Bft) N-NW 337 7,8 C 8,0 C 0,0 km/h (0 Bft)
21.05.2013 07:20 8,0 C 94 % 1015,2 hPa 0,0 l/m 0,0 km/h (0 Bft) W-SW 247 7,1 C 8,7 C 0,0 km/h (0 Bft)
21.05.2013 07:25 7,5 C 94 % 1015,4 hPa 0,0 l/m 0,0 km/h (0 Bft) SW 225 6,6 C 8,8 C 0,0 km/h (0 Bft)
21.05.2013 07:30 7,5 C 94 % 1015,4 hPa 0,0 l/m 0,0 km/h (0 Bft) NO 45 6,6 C 8,5 C 0,0 km/h (0 Bft)
21.05.2013 07:35 8,8 C 94 % 1015,4 hPa 0,0 l/m 0,0 km/h (0 Bft) NW 315 7,9 C 8,8 C 0,0 km/h (0 Bft)
21.05.2013 07:40 9,1 C 92 % 1015,4 hPa 0,0 l/m 0,0 km/h (0 Bft) W 270 7,9 C 10,4 C 0,0 km/h (0 Bft)
21.05.2013 07:45 8,6 C 92 % 1015,1 hPa 0,0 l/m 0,0 km/h (0 Bft) W-SW 247 7,4 C 10,2 C 0,0 km/h (0 Bft)
21.05.2013 07:50 9,8 C 92 % 1015,1 hPa 0,0 l/m 0,2 km/h (0 Bft) S 180 8,6 C 9,9 C 2,6 km/h (1 Bft)
21.05.2013 07:55 12,9 C 89 % 1015,1 hPa 0,0 l/m 1,4 km/h (1 Bft) S 180 11,1 C 11,3 C 4,7 km/h (1 Bft)
21.05.2013 08:00 14,0 C 82 % 1015,1 hPa 0,0 l/m 2,9 km/h (1 Bft) S 180 11,0 C 13,5 C 2,6 km/h (1 Bft)
21.05.2013 08:05 12,9 C 81 % 1015,2 hPa 0,0 l/m 2,7 km/h (1 Bft) SW 225 9,7 C 14,3 C 0,0 km/h (0 Bft)
21.05.2013 08:10 14,8 C 81 % 1015,2 hPa 0,0 l/m 2,4 km/h (1 Bft) SO 135 11,6 C 14,7 C 2,4 km/h (1 Bft)
21.05.2013 08:15 12,5 C 81 % 1015,2 hPa 0,0 l/m 2,4 km/h (1 Bft) W 270 9,3 C 15,1 C 1,9 km/h (1 Bft)
21.05.2013 08:20 14,3 C 77 % 1015,2 hPa 0,0 l/m 1,1 km/h (1 Bft) W-SW 247 10,3 C 15,3 C 0,0 km/h (0 Bft)
21.05.2013 08:25 14,1 C 80 % 1015,4 hPa 0,0 l/m 0,5 km/h (0 Bft) W-NW 292 10,7 C 16,5 C 2,3 km/h (1 Bft)
21.05.2013 08:30 13,3 C 79 % 1015,4 hPa 0,0 l/m 1,1 km/h (1 Bft) S-SW 202 9,7 C 16,0 C 3,2 km/h (1 Bft)
21.05.2013 08:35 14,0 C 79 % 1015,4 hPa 0,0 l/m 1,4 km/h (1 Bft) W 270 10,4 C 15,8 C 0,0 km/h (0 Bft)
21.05.2013 08:40 14,5 C 76 % 1015,4 hPa 0,0 l/m 1,8 km/h (1 Bft) W 270 10,3 C 16,6 C 3,1 km/h (1 Bft)
21.05.2013 08:45 13,6 C 73 % 1015,4 hPa 0,0 l/m 1,9 km/h (1 Bft) N-NW 337 8,9 C 16,3 C 2,4 km/h (1 Bft)
21.05.2013 08:50 13,4 C 79 % 1015,4 hPa 0,0 l/m 1,3 km/h (1 Bft) NO 45 9,8 C 16,3 C 0,0 km/h (0 Bft)
21.05.2013 08:55 13,8 C 77 % 1015,4 hPa 0,0 l/m 1,1 km/h (1 Bft) N 360 9,8 C 15,9 C 0,0 km/h (0 Bft)
21.05.2013 09:00 12,9 C 78 % 1015,4 hPa 0,0 l/m 1,6 km/h (1 Bft) W-NW 292 9,2 C 15,9 C 1,9 km/h (1 Bft)
21.05.2013 09:05 15,3 C 77 % 1015,4 hPa 0,0 l/m 1,3 km/h (1 Bft) W 270 11,3 C 15,7 C 2,1 km/h (1 Bft)
21.05.2013 09:10 13,3 C 74 % 1015,4 hPa 0,0 l/m 1,6 km/h (1 Bft) W-NW 292 8,8 C 16,6 C 1,6 km/h (1 Bft)
21.05.2013 09:15 12,6 C 79 % 1015,4 hPa 0,0 l/m 1,8 km/h (1 Bft) W-SW 247 9,1 C 15,7 C 1,9 km/h (1 Bft)
21.05.2013 09:20 12,2 C 79 % 1015,4 hPa 0,0 l/m 2,1 km/h (1 Bft) W-NW 292 8,7 C 14,5 C 3,1 km/h (1 Bft)
21.05.2013 09:25 12,0 C 78 % 1015,5 hPa 0,0 l/m 2,7 km/h (1 Bft) SW 225 8,3 C 14,1 C 6,6 km/h (2 Bft)
21.05.2013 09:30 11,7 C 73 % 1015,5 hPa 0,0 l/m 2,4 km/h (1 Bft) W 270 7,0 C 14,1 C 4,2 km/h (1 Bft)
21.05.2013 09:35 12,0 C 78 % 1015,5 hPa 0,0 l/m 2,1 km/h (1 Bft) S 180 8,3 C 13,9 C 8,0 km/h (2 Bft)
21.05.2013 09:40 11,8 C 73 % 1015,5 hPa 0,0 l/m 2,4 km/h (1 Bft) N-NW 337 7,1 C 13,9 C 3,9 km/h (1 Bft)
21.05.2013 09:45 12,3 C 78 % 1015,5 hPa 0,0 l/m 2,3 km/h (1 Bft) S-SW 202 8,6 C 14,0 C 4,2 km/h (1 Bft)
21.05.2013 09:50 15,1 C 71 % 1015,5 hPa 0,0 l/m 3,1 km/h (1 Bft) NO 45 9,9 C 14,8 C 7,1 km/h (2 Bft)
21.05.2013 09:55 14,6 C 69 % 1015,5 hPa 0,0 l/m 3,2 km/h (1 Bft) N 360 9,0 C 16,1 C 4,8 km/h (1 Bft)
21.05.2013 10:00 14,1 C 65 % 1015,5 hPa 0,0 l/m 2,9 km/h (1 Bft) W-NW 292 7,6 C 17,1 C 2,4 km/h (1 Bft)
21.05.2013 10:05 12,7 C 66 % 1015,5 hPa 0,0 l/m 3,1 km/h (1 Bft) W-NW 292 6,5 C 16,9 C 6,6 km/h (2 Bft)
21.05.2013 10:10 12,9 C 72 % 1015,5 hPa 0,0 l/m 3,2 km/h (1 Bft) N-NW 337 8,0 C 15,8 C 0,0 km/h (0 Bft)
21.05.2013 10:15 13,5 C 70 % 1015,5 hPa 0,0 l/m 3,1 km/h (1 Bft) W-NW 292 8,1 C 15,8 C 9,8 km/h (2 Bft)
21.05.2013 10:20 12,7 C 68 % 1015,5 hPa 0,0 l/m 3,9 km/h (1 Bft) W-NW 292 6,9 C 15,2 C 4,0 km/h (1 Bft)
21.05.2013 10:25 12,5 C 69 % 1015,8 hPa 0,0 l/m 3,7 km/h (1 Bft) W 270 7,0 C 14,9 C 10,3 km/h (2 Bft)
21.05.2013 10:30 12,1 C 68 % 1015,8 hPa 0,0 l/m 4,0 km/h (1 Bft) N 360 6,4 C 14,3 C 3,9 km/h (1 Bft)
21.05.2013 10:35 11,9 C 69 % 1015,8 hPa 0,0 l/m 4,0 km/h (1 Bft) N 360 6,4 C 14,1 C 2,3 km/h (1 Bft)
21.05.2013 10:40 11,8 C 69 % 1015,8 hPa 0,0 l/m 3,5 km/h (1 Bft) W-NW 292 6,3 C 14,1 C 3,4 km/h (1 Bft)
21.05.2013 10:45 11,6 C 67 % 1015,8 hPa 0,0 l/m 3,7 km/h (1 Bft) W-SW 247 5,7 C 13,8 C 4,0 km/h (1 Bft)
21.05.2013 10:50 12,1 C 69 % 1015,8 hPa 0,0 l/m 2,7 km/h (1 Bft) W 270 6,6 C 13,8 C 5,0 km/h (1 Bft)
21.05.2013 10:55 12,0 C 68 % 1015,8 hPa 0,0 l/m 2,7 km/h (1 Bft) W-NW 292 6,3 C 13,8 C 4,5 km/h (1 Bft)
21.05.2013 11:00 12,3 C 68 % 1015,8 hPa 0,0 l/m 3,1 km/h (1 Bft) NW 315 6,6 C 13,8 C 2,6 km/h (1 Bft)
21.05.2013 11:05 12,3 C 68 % 1015,4 hPa 0,0 l/m 2,9 km/h (1 Bft) W-SW 247 6,6 C 14,2 C 5,5 km/h (1 Bft)
21.05.2013 11:10 12,2 C 61 % 1015,4 hPa 0,0 l/m 2,9 km/h (1 Bft) N-NW 337 4,9 C 14,3 C 3,7 km/h (1 Bft)
21.05.2013 11:15 12,2 C 62 % 1015,4 hPa 0,0 l/m 4,0 km/h (1 Bft) N 360 5,1 C 14,1 C 5,8 km/h (2 Bft)
21.05.2013 11:20 12,1 C 59 % 1015,4 hPa 0,0 l/m 4,3 km/h (1 Bft) N 360 4,3 C 13,9 C 4,2 km/h (1 Bft)
21.05.2013 11:25 12,1 C 59 % 1014,9 hPa 0,0 l/m 4,3 km/h (1 Bft) N-NW 337 4,3 C 14,0 C 5,5 km/h (1 Bft)
21.05.2013 11:30 12,9 C 58 % 1014,9 hPa 0,0 l/m 4,5 km/h (1 Bft) N-NO 22 4,8 C 14,3 C 8,0 km/h (2 Bft)
21.05.2013 11:35 13,4 C 58 % 1014,9 hPa 0,0 l/m 4,5 km/h (1 Bft) W 270 5,3 C 14,4 C 12,4 km/h (3 Bft)
21.05.2013 11:40 13,7 C 57 % 1014,9 hPa 0,0 l/m 4,2 km/h (1 Bft) O 90 5,3 C 15,2 C 10,5 km/h (2 Bft)
21.05.2013 11:45 13,6 C 57 % 1015,2 hPa 0,0 l/m 4,2 km/h (1 Bft) W-SW 247 5,2 C 15,3 C 5,5 km/h (1 Bft)
21.05.2013 11:50 14,6 C 58 % 1015,2 hPa 0,0 l/m 4,0 km/h (1 Bft) W-NW 292 6,4 C 15,3 C 6,4 km/h (2 Bft)
21.05.2013 11:55 14,5 C 56 % 1015,2 hPa 0,0 l/m 2,9 km/h (1 Bft) W 270 5,8 C 15,5 C 3,2 km/h (1 Bft)
21.05.2013 12:00 13,9 C 57 % 1015,2 hPa 0,0 l/m 3,1 km/h (1 Bft) W-NW 292 5,5 C 15,8 C 3,2 km/h (1 Bft)
21.05.2013 12:05 14,1 C 56 % 1015,1 hPa 0,0 l/m 2,7 km/h (1 Bft) W-SW 247 5,5 C 15,7 C 6,4 km/h (2 Bft)
21.05.2013 12:10 14,8 C 54 % 1015,1 hPa 0,0 l/m 3,4 km/h (1 Bft) SW 225 5,6 C 15,4 C 0,0 km/h (0 Bft)
21.05.2013 12:15 15,6 C 52 % 1015,1 hPa 0,0 l/m 4,3 km/h (1 Bft) W-SW 247 5,8 C 16,5 C 7,7 km/h (2 Bft)
21.05.2013 12:20 14,3 C 54 % 1015,1 hPa 0,0 l/m 4,5 km/h (1 Bft) S 180 5,1 C 16,3 C 3,5 km/h (1 Bft)
21.05.2013 12:25 13,9 C 56 % 1015,1 hPa 0,0 l/m 4,3 km/h (1 Bft) W 270 5,3 C 15,8 C 4,7 km/h (1 Bft)
21.05.2013 12:30 13,4 C 56 % 1015,1 hPa 0,0 l/m 3,2 km/h (1 Bft) W-NW 292 4,8 C 15,1 C 0,0 km/h (0 Bft)
21.05.2013 12:35 13,7 C 57 % 1015,1 hPa 0,0 l/m 2,7 km/h (1 Bft) SO 135 5,3 C 15,0 C 1,8 km/h (1 Bft)
21.05.2013 12:40 14,2 C 56 % 1015,1 hPa 0,0 l/m 2,6 km/h (1 Bft) NW 315 5,6 C 14,8 C 7,4 km/h (2 Bft)
21.05.2013 12:45 13,8 C 55 % 1014,8 hPa 0,0 l/m 3,2 km/h (1 Bft) N 360 4,9 C 15,0 C 4,0 km/h (1 Bft)
21.05.2013 12:50 13,7 C 57 % 1014,8 hPa 0,0 l/m 2,6 km/h (1 Bft) S-SW 202 5,3 C 15,0 C 2,9 km/h (1 Bft)
21.05.2013 12:55 13,6 C 57 % 1014,8 hPa 0,0 l/m 2,1 km/h (1 Bft) W-NW 292 5,2 C 14,7 C 4,2 km/h (1 Bft)
21.05.2013 13:00 13,1 C 58 % 1014,8 hPa 0,0 l/m 2,1 km/h (1 Bft) W 270 5,0 C 14,1 C 0,0 km/h (0 Bft)
21.05.2013 13:05 12,9 C 59 % 1014,4 hPa 0,0 l/m 1,0 km/h (0 Bft) S-SO 157 5,1 C 13,8 C 0,0 km/h (0 Bft)
21.05.2013 13:10 11,9 C 63 % 1014,4 hPa 0,0 l/m 1,1 km/h (1 Bft) O 90 5,1 C 13,3 C 4,0 km/h (1 Bft)
21.05.2013 13:15 11,6 C 63 % 1014,4 hPa 0,0 l/m 2,6 km/h (1 Bft) O 90 4,8 C 12,7 C 3,7 km/h (1 Bft)
21.05.2013 13:20 11,3 C 66 % 1014,4 hPa 0,0 l/m 2,6 km/h (1 Bft) NO 45 5,2 C 12,1 C 0,0 km/h (0 Bft)
21.05.2013 13:25 10,8 C 70 % 1014,6 hPa 0,0 l/m 1,8 km/h (1 Bft) O-SO 112 5,6 C 11,5 C 2,6 km/h (1 Bft)
21.05.2013 13:30 9,7 C 80 % 1014,6 hPa 0,0 l/m 2,3 km/h (1 Bft) SW 225 6,4 C 10,1 C 3,9 km/h (1 Bft)
21.05.2013 13:35 9,0 C 83 % 1014,6 hPa 0,0 l/m 3,5 km/h (1 Bft) O 90 6,3 C 9,4 C 6,1 km/h (2 Bft)
21.05.2013 13:40 8,4 C 86 % 1014,6 hPa 0,7 l/m 3,9 km/h (1 Bft) O-NO 67 6,2 C 8,3 C 1,8 km/h (1 Bft)
21.05.2013 13:45 8,0 C 87 % 1014,9 hPa 0,0 l/m 3,2 km/h (1 Bft) NO 45 6,0 C 8,1 C 4,7 km/h (1 Bft)
21.05.2013 13:50 7,9 C 89 % 1014,9 hPa 0,7 l/m 2,4 km/h (1 Bft) NO 45 6,2 C 7,9 C 3,9 km/h (1 Bft)
21.05.2013 13:55 7,8 C 89 % 1014,9 hPa 0,0 l/m 2,9 km/h (1 Bft) NO 45 6,1 C 7,8 C 3,5 km/h (1 Bft)
21.05.2013 14:00 8,4 C 90 % 1014,9 hPa 0,0 l/m 2,9 km/h (1 Bft) W-SW 247 6,9 C 7,9 C 3,1 km/h (1 Bft)
21.05.2013 14:05 8,4 C 90 % 1014,9 hPa 0,0 l/m 2,7 km/h (1 Bft) W-SW 247 6,9 C 8,2 C 2,1 km/h (1 Bft)
21.05.2013 14:10 8,4 C 91 % 1014,9 hPa 0,0 l/m 3,1 km/h (1 Bft) SO 135 7,0 C 8,5 C 2,7 km/h (1 Bft)
21.05.2013 14:15 8,3 C 91 % 1014,9 hPa 0,0 l/m 1,9 km/h (1 Bft) O-SO 112 6,9 C 8,5 C 0,0 km/h (0 Bft)
21.05.2013 14:20 8,2 C 91 % 1014,9 hPa 0,0 l/m 1,4 km/h (1 Bft) S 180 6,8 C 8,5 C 3,2 km/h (1 Bft)
21.05.2013 14:25 8,2 C 91 % 1014,8 hPa 0,0 l/m 1,4 km/h (1 Bft) S-SW 202 6,8 C 8,5 C 2,6 km/h (1 Bft)
21.05.2013 14:30 8,1 C 92 % 1014,8 hPa 0,0 l/m 1,6 km/h (1 Bft) O-NO 67 6,9 C 8,6 C 3,2 km/h (1 Bft)
21.05.2013 14:35 8,0 C 92 % 1014,8 hPa 0,0 l/m 1,6 km/h (1 Bft) NO 45 6,8 C 8,5 C 2,6 km/h (1 Bft)
21.05.2013 14:40 8,1 C 92 % 1014,8 hPa 0,0 l/m 1,3 km/h (1 Bft) O-NO 67 6,9 C 8,5 C 1,9 km/h (1 Bft)
21.05.2013 14:45 8,2 C 92 % 1014,4 hPa 0,0 l/m 1,1 km/h (1 Bft) O 90 7,0 C 8,5 C 0,0 km/h (0 Bft)
21.05.2013 14:50 8,5 C 92 % 1014,4 hPa 0,0 l/m 0,6 km/h (0 Bft) NO 45 7,3 C 8,8 C 0,0 km/h (0 Bft)
21.05.2013 14:55 8,9 C 92 % 1014,4 hPa 0,0 l/m 0,0 km/h (0 Bft) O 90 7,7 C 9,1 C 0,0 km/h (0 Bft)
21.05.2013 15:00 9,3 C 92 % 1014,4 hPa 0,0 l/m 0,3 km/h (0 Bft) S-SW 202 8,1 C 9,7 C 2,4 km/h (1 Bft)
21.05.2013 15:05 10,0 C 92 % 1014,2 hPa 0,0 l/m 1,1 km/h (1 Bft) W-SW 247 8,8 C 10,3 C 2,6 km/h (1 Bft)
21.05.2013 15:10 10,4 C 92 % 1014,2 hPa 0,0 l/m 2,3 km/h (1 Bft) SO 135 9,2 C 11,4 C 2,1 km/h (1 Bft)
21.05.2013 15:15 10,9 C 91 % 1014,2 hPa 0,0 l/m 1,8 km/h (1 Bft) S-SW 202 9,5 C 12,1 C 2,4 km/h (1 Bft)
21.05.2013 15:20 11,4 C 89 % 1014,2 hPa 0,0 l/m 2,7 km/h (1 Bft) S 180 9,7 C 13,2 C 4,8 km/h (1 Bft)
21.05.2013 15:25 11,8 C 87 % 1014,2 hPa 0,0 l/m 3,7 km/h (1 Bft) S 180 9,7 C 13,6 C 5,6 km/h (1 Bft)
21.05.2013 15:30 12,2 C 83 % 1014,2 hPa 0,0 l/m 4,2 km/h (1 Bft) S-SW 202 9,4 C 14,3 C 4,5 km/h (1 Bft)
21.05.2013 15:35 12,4 C 80 % 1014,2 hPa 0,0 l/m 4,7 km/h (1 Bft) S 180 9,0 C 14,5 C 3,4 km/h (1 Bft)
21.05.2013 15:40 12,7 C 78 % 1014,2 hPa 0,0 l/m 5,3 km/h (1 Bft) S-SW 202 9,0 C 15,3 C 7,4 km/h (2 Bft)
21.05.2013 15:45 12,6 C 78 % 1012,1 hPa 0,0 l/m 5,5 km/h (1 Bft) W-SW 247 8,9 C 15,5 C 10,1 km/h (2 Bft)
21.05.2013 15:50 14,1 C 77 % 1012,1 hPa 0,0 l/m 5,5 km/h (1 Bft) W-SW 247 10,1 C 16,2 C 6,8 km/h (2 Bft)
21.05.2013 15:55 14,3 C 73 % 1012,1 hPa 0,0 l/m 5,5 km/h (1 Bft) S-SO 157 9,5 C 17,2 C 3,5 km/h (1 Bft)
21.05.2013 16:00 13,2 C 74 % 1012,1 hPa 0,0 l/m 6,6 km/h (2 Bft) W-SW 247 8,7 C 16,7 C 9,2 km/h (2 Bft)
21.05.2013 16:05 12,7 C 77 % 1010,4 hPa 0,0 l/m 6,8 km/h (2 Bft) W-SW 247 8,8 C 15,6 C 7,9 km/h (2 Bft)
21.05.2013 16:10 12,2 C 72 % 1010,4 hPa 0,0 l/m 6,1 km/h (2 Bft) S-SW 202 7,3 C 14,6 C 5,8 km/h (2 Bft)
21.05.2013 16:15 12,1 C 76 % 1010,4 hPa 0,0 l/m 5,5 km/h (1 Bft) SW 225 8,0 C 14,2 C 6,9 km/h (2 Bft)
21.05.2013 16:20 12,0 C 78 % 1010,4 hPa 0,0 l/m 5,3 km/h (1 Bft) W-SW 247 8,3 C 13,6 C 7,2 km/h (2 Bft)
21.05.2013 16:25 12,0 C 78 % 1011,7 hPa 0,0 l/m 5,0 km/h (1 Bft) W 270 8,3 C 13,4 C 3,4 km/h (1 Bft)
21.05.2013 16:30 11,5 C 78 % 1011,7 hPa 0,0 l/m 4,7 km/h (1 Bft) S-SW 202 7,8 C 13,1 C 5,1 km/h (1 Bft)
21.05.2013 16:35 11,2 C 80 % 1011,7 hPa 0,0 l/m 4,8 km/h (1 Bft) S-SW 202 7,9 C 12,6 C 4,5 km/h (1 Bft)
21.05.2013 16:40 10,9 C 81 % 1011,7 hPa 0,0 l/m 5,0 km/h (1 Bft) S-SW 202 7,8 C 11,9 C 7,7 km/h (2 Bft)
21.05.2013 16:45 10,8 C 81 % 1012,8 hPa 0,0 l/m 5,0 km/h (1 Bft) NW 315 7,7 C 11,7 C 5,8 km/h (2 Bft)
21.05.2013 16:50 10,8 C 83 % 1012,8 hPa 0,0 l/m 4,0 km/h (1 Bft) W-SW 247 8,0 C 11,6 C 2,9 km/h (1 Bft)
21.05.2013 16:55 10,7 C 84 % 1012,8 hPa 0,0 l/m 3,5 km/h (1 Bft) S 180 8,1 C 11,2 C 3,9 km/h (1 Bft)
21.05.2013 17:00 10,5 C 86 % 1012,8 hPa 0,0 l/m 3,2 km/h (1 Bft) S-SO 157 8,3 C 10,7 C 2,4 km/h (1 Bft)
21.05.2013 17:05 10,3 C 87 % 1013,8 hPa 0,0 l/m 2,9 km/h (1 Bft) S 180 8,2 C 10,4 C 2,3 km/h (1 Bft)
21.05.2013 17:10 9,9 C 88 % 1013,8 hPa 0,0 l/m 3,1 km/h (1 Bft) S 180 8,0 C 9,8 C 1,9 km/h (1 Bft)
21.05.2013 17:15 9,5 C 88 % 1013,8 hPa 0,7 l/m 2,1 km/h (1 Bft) N-NO 22 7,6 C 9,5 C 0,0 km/h (0 Bft)
21.05.2013 17:20 9,3 C 90 % 1013,8 hPa 0,0 l/m 1,0 km/h (0 Bft) S 180 7,7 C 9,2 C 2,9 km/h (1 Bft)
21.05.2013 17:25 9,2 C 90 % 1014,8 hPa 0,0 l/m 1,1 km/h (1 Bft) S-SW 202 7,6 C 9,1 C 0,0 km/h (0 Bft)
21.05.2013 17:30 9,0 C 91 % 1014,8 hPa 0,0 l/m 1,4 km/h (1 Bft) S-SW 202 7,6 C 8,8 C 0,0 km/h (0 Bft)
21.05.2013 17:35 8,9 C 91 % 1014,8 hPa 0,7 l/m 0,8 km/h (0 Bft) S 180 7,5 C 8,7 C 0,0 km/h (0 Bft)
21.05.2013 17:40 8,8 C 92 % 1014,8 hPa 0,0 l/m 0,5 km/h (0 Bft) S 180 7,6 C 8,5 C 0,0 km/h (0 Bft)
21.05.2013 17:45 8,7 C 92 % 1015,4 hPa 0,0 l/m 1,0 km/h (0 Bft) NO 45 7,5 C 8,5 C 3,7 km/h (1 Bft)
21.05.2013 17:50 8,6 C 92 % 1015,4 hPa 0,0 l/m 0,6 km/h (0 Bft) O-NO 67 7,4 C 8,5 C 0,0 km/h (0 Bft)
21.05.2013 17:55 8,6 C 92 % 1015,4 hPa 0,0 l/m 0,8 km/h (0 Bft) N-NO 22 7,4 C 8,5 C 1,6 km/h (1 Bft)
21.05.2013 18:00 8,5 C 93 % 1015,4 hPa 0,0 l/m 0,6 km/h (0 Bft) NO 45 7,4 C 8,5 C 1,6 km/h (1 Bft)
21.05.2013 18:05 8,6 C 93 % 1016,1 hPa 0,0 l/m 0,6 km/h (0 Bft) O-NO 67 7,5 C 8,6 C 0,0 km/h (0 Bft)
21.05.2013 18:10 8,7 C 93 % 1016,1 hPa 0,0 l/m 0,2 km/h (0 Bft) O 90 7,6 C 8,8 C 0,0 km/h (0 Bft)
21.05.2013 18:15 8,8 C 93 % 1016,1 hPa 0,0 l/m 0,0 km/h (0 Bft) O-NO 67 7,7 C 8,9 C 0,0 km/h (0 Bft)
21.05.2013 18:20 9,1 C 93 % 1016,1 hPa 0,0 l/m 0,0 km/h (0 Bft) O-SO 112 8,0 C 9,2 C 0,0 km/h (0 Bft)
21.05.2013 18:25 9,5 C 93 % 1016,4 hPa 0,0 l/m 0,0 km/h (0 Bft) W-SW 247 8,4 C 9,7 C 0,0 km/h (0 Bft)
21.05.2013 18:30 10,0 C 93 % 1016,4 hPa 0,0 l/m 0,2 km/h (0 Bft) N-NW 337 8,9 C 10,8 C 0,0 km/h (0 Bft)
21.05.2013 18:35 10,1 C 93 % 1016,4 hPa 0,0 l/m 0,3 km/h (0 Bft) W-NW 292 9,0 C 11,4 C 1,8 km/h (1 Bft)
21.05.2013 18:40 10,0 C 93 % 1016,4 hPa 0,0 l/m 0,6 km/h (0 Bft) W-NW 292 8,9 C 11,6 C 3,1 km/h (1 Bft)
21.05.2013 18:45 9,8 C 93 % 1016,1 hPa 0,0 l/m 1,3 km/h (1 Bft) W-NW 292 8,7 C 11,4 C 2,7 km/h (1 Bft)
21.05.2013 18:50 9,6 C 93 % 1016,1 hPa 0,0 l/m 1,4 km/h (1 Bft) O-SO 112 8,5 C 10,9 C 2,9 km/h (1 Bft)
21.05.2013 18:55 9,6 C 93 % 1016,1 hPa 0,0 l/m 1,1 km/h (1 Bft) O-NO 67 8,5 C 10,6 C 0,0 km/h (0 Bft)
21.05.2013 19:00 9,3 C 93 % 1016,1 hPa 0,7 l/m 0,6 km/h (0 Bft) N 360 8,2 C 10,2 C 0,0 km/h (0 Bft)
21.05.2013 19:05 9,2 C 93 % 1016,4 hPa 0,0 l/m 0,0 km/h (0 Bft) O 90 8,1 C 9,9 C 0,0 km/h (0 Bft)
21.05.2013 19:10 8,8 C 93 % 1016,4 hPa 0,0 l/m 1,0 km/h (0 Bft) W-NW 292 7,7 C 9,4 C 2,4 km/h (1 Bft)
21.05.2013 19:15 8,6 C 93 % 1016,4 hPa 0,0 l/m 1,6 km/h (1 Bft) N-NO 22 7,5 C 9,1 C 1,8 km/h (1 Bft)
21.05.2013 19:20 8,8 C 93 % 1016,4 hPa 0,0 l/m 1,6 km/h (1 Bft) N-NW 337 7,7 C 8,9 C 0,0 km/h (0 Bft)
21.05.2013 19:25 8,7 C 93 % 1016,8 hPa 0,0 l/m 1,0 km/h (0 Bft) N-NW 337 7,6 C 8,8 C 0,0 km/h (0 Bft)
21.05.2013 19:30 8,6 C 94 % 1016,8 hPa 0,0 l/m 0,2 km/h (0 Bft) N-NO 22 7,7 C 8,8 C 0,0 km/h (0 Bft)
21.05.2013 19:35 8,5 C 94 % 1016,8 hPa 0,0 l/m 0,2 km/h (0 Bft) N 360 7,6 C 8,8 C 0,0 km/h (0 Bft)
21.05.2013 19:40 8,6 C 94 % 1016,8 hPa 0,0 l/m 0,5 km/h (0 Bft) S 180 7,7 C 8,8 C 3,5 km/h (1 Bft)
21.05.2013 19:45 8,6 C 94 % 1017,4 hPa 0,0 l/m 1,3 km/h (1 Bft) SW 225 7,7 C 8,7 C 2,1 km/h (1 Bft)
21.05.2013 19:50 8,5 C 94 % 1017,4 hPa 0,0 l/m 1,1 km/h (1 Bft) O 90 7,6 C 8,6 C 0,0 km/h (0 Bft)
21.05.2013 19:55 8,4 C 94 % 1017,4 hPa 0,0 l/m 0,2 km/h (0 Bft) S-SO 157 7,5 C 8,6 C 0,0 km/h (0 Bft)
21.05.2013 20:00 8,4 C 94 % 1017,4 hPa 0,0 l/m 0,0 km/h (0 Bft) NO 45 7,5 C 8,5 C 0,0 km/h (0 Bft)
21.05.2013 20:05 8,4 C 94 % 1017,8 hPa 0,0 l/m 0,3 km/h (0 Bft) O 90 7,5 C 8,5 C 2,6 km/h (1 Bft)
21.05.2013 20:10 8,3 C 94 % 1017,8 hPa 0,0 l/m 1,0 km/h (0 Bft) N-NO 22 7,4 C 8,5 C 2,9 km/h (1 Bft)
21.05.2013 20:15 8,3 C 94 % 1017,8 hPa 0,0 l/m 1,3 km/h (1 Bft) NO 45 7,4 C 8,4 C 0,0 km/h (0 Bft)
21.05.2013 20:20 8,3 C 94 % 1017,8 hPa 0,0 l/m 1,0 km/h (0 Bft) N 360 7,4 C 8,3 C 0,0 km/h (0 Bft)
21.05.2013 20:25 8,3 C 94 % 1018,3 hPa 0,0 l/m 0,2 km/h (0 Bft) O-NO 67 7,4 C 8,3 C 0,0 km/h (0 Bft)
21.05.2013 20:30 8,3 C 94 % 1018,3 hPa 0,0 l/m 0,2 km/h (0 Bft) S 180 7,4 C 8,3 C 0,0 km/h (0 Bft)
21.05.2013 20:35 8,2 C 94 % 1018,3 hPa 0,0 l/m 0,0 km/h (0 Bft) S 180 7,3 C 8,2 C 0,0 km/h (0 Bft)
21.05.2013 20:40 8,2 C 94 % 1018,3 hPa 0,0 l/m 0,0 km/h (0 Bft) O-SO 112 7,3 C 8,2 C 1,9 km/h (1 Bft)
21.05.2013 20:45 8,1 C 94 % 1017,1 hPa 0,0 l/m 0,0 km/h (0 Bft) NO 45 7,2 C 8,2 C 0,0 km/h (0 Bft)
21.05.2013 20:50 8,1 C 94 % 1017,1 hPa 0,0 l/m 0,8 km/h (0 Bft) SO 135 7,2 C 8,1 C 7,1 km/h (2 Bft)
21.05.2013 20:55 7,9 C 95 % 1017,1 hPa 0,0 l/m 3,5 km/h (1 Bft) S 180 7,1 C 8,1 C 6,9 km/h (2 Bft)
21.05.2013 21:00 7,6 C 95 % 1017,1 hPa 0,0 l/m 7,6 km/h (2 Bft) SO 135 6,9 C 5,6 C 7,7 km/h (2 Bft)
21.05.2013 21:05 7,4 C 94 % 1017,2 hPa 0,0 l/m 6,9 km/h (2 Bft) S 180 6,5 C 6,2 C 15,0 km/h (3 Bft)
21.05.2013 21:10 7,1 C 94 % 1017,2 hPa 0,0 l/m 6,0 km/h (2 Bft) SO 135 6,2 C 6,3 C 8,4 km/h (2 Bft)
21.05.2013 21:15 7,0 C 94 % 1017,2 hPa 0,0 l/m 4,8 km/h (1 Bft) O 90 6,1 C 6,5 C 4,8 km/h (1 Bft)
21.05.2013 21:20 7,0 C 94 % 1017,2 hPa 0,0 l/m 3,2 km/h (1 Bft) S-SO 157 6,1 C 6,9 C 6,3 km/h (2 Bft)
21.05.2013 21:25 6,9 C 94 % 1017,4 hPa 0,0 l/m 4,2 km/h (1 Bft) S 180 6,0 C 6,4 C 4,5 km/h (1 Bft)
21.05.2013 21:30 6,8 C 94 % 1017,4 hPa 0,0 l/m 5,6 km/h (1 Bft) S 180 5,9 C 5,8 C 8,7 km/h (2 Bft)
21.05.2013 21:35 6,8 C 94 % 1017,4 hPa 0,0 l/m 5,1 km/h (1 Bft) S 180 5,9 C 6,0 C 4,7 km/h (1 Bft)
21.05.2013 21:40 6,7 C 94 % 1017,4 hPa 0,7 l/m 3,5 km/h (1 Bft) S 180 5,8 C 6,5 C 1,6 km/h (1 Bft)
21.05.2013 21:45 6,6 C 94 % 1017,8 hPa 0,0 l/m 2,4 km/h (1 Bft) O-SO 112 5,7 C 6,6 C 2,9 km/h (1 Bft)
21.05.2013 21:50 6,5 C 94 % 1017,8 hPa 0,0 l/m 1,8 km/h (1 Bft) S 180 5,6 C 6,5 C 0,0 km/h (0 Bft)
21.05.2013 21:55 6,5 C 94 % 1017,8 hPa 0,0 l/m 1,6 km/h (1 Bft) O 90 5,6 C 6,4 C 0,0 km/h (0 Bft)
21.05.2013 22:00 6,5 C 94 % 1017,8 hPa 0,0 l/m 2,6 km/h (1 Bft) O 90 5,6 C 6,4 C 1,8 km/h (1 Bft)
21.05.2013 22:05 6,4 C 94 % 1017,8 hPa 0,0 l/m 3,2 km/h (1 Bft) S-SO 157 5,5 C 6,4 C 7,4 km/h (2 Bft)
21.05.2013 22:10 6,5 C 95 % 1017,8 hPa 0,0 l/m 2,6 km/h (1 Bft) S 180 5,8 C 6,4 C 3,1 km/h (1 Bft)
21.05.2013 22:15 6,4 C 95 % 1017,8 hPa 0,7 l/m 2,1 km/h (1 Bft) S 180 5,7 C 6,3 C 0,0 km/h (0 Bft)
21.05.2013 22:20 6,5 C 95 % 1017,8 hPa 0,0 l/m 1,8 km/h (1 Bft) O-SO 112 5,8 C 6,3 C 0,0 km/h (0 Bft)
21.05.2013 22:25 6,5 C 95 % 1018,1 hPa 0,0 l/m 2,1 km/h (1 Bft) S 180 5,8 C 6,3 C 4,7 km/h (1 Bft)
21.05.2013 22:30 6,5 C 95 % 1018,1 hPa 0,0 l/m 2,4 km/h (1 Bft) O-NO 67 5,8 C 6,3 C 3,5 km/h (1 Bft)
21.05.2013 22:35 6,4 C 95 % 1018,1 hPa 0,0 l/m 1,8 km/h (1 Bft) O 90 5,7 C 6,3 C 1,6 km/h (1 Bft)
21.05.2013 22:40 6,4 C 95 % 1018,1 hPa 0,0 l/m 0,6 km/h (0 Bft) S-SO 157 5,7 C 6,2 C 2,3 km/h (1 Bft)
21.05.2013 22:45 6,3 C 95 % 1018,1 hPa 0,0 l/m 0,3 km/h (0 Bft) S 180 5,6 C 6,1 C 0,0 km/h (0 Bft)
21.05.2013 22:50 6,1 C 95 % 1018,1 hPa 0,0 l/m 0,2 km/h (0 Bft) O-SO 112 5,4 C 6,1 C 0,0 km/h (0 Bft)
21.05.2013 22:55 6,1 C 95 % 1018,1 hPa 0,0 l/m 0,0 km/h (0 Bft) NO 45 5,4 C 6,0 C 0,0 km/h (0 Bft)
21.05.2013 23:00 6,0 C 95 % 1018,1 hPa 0,0 l/m 0,2 km/h (0 Bft) O-NO 67 5,3 C 6,0 C 1,9 km/h (1 Bft)
21.05.2013 23:05 6,0 C 95 % 1018,1 hPa 0,0 l/m 0,6 km/h (0 Bft) NO 45 5,3 C 5,9 C 1,6 km/h (1 Bft)
21.05.2013 23:10 5,9 C 96 % 1018,1 hPa 0,0 l/m 1,0 km/h (0 Bft) NO 45 5,3 C 5,7 C 1,8 km/h (1 Bft)
21.05.2013 23:15 5,7 C 96 % 1018,1 hPa 0,0 l/m 0,6 km/h (0 Bft) NO 45 5,1 C 5,6 C 1,8 km/h (1 Bft)
21.05.2013 23:20 5,5 C 96 % 1018,1 hPa 0,0 l/m 0,3 km/h (0 Bft) NO 45 4,9 C 5,4 C 0,0 km/h (0 Bft)
21.05.2013 23:25 5,5 C 96 % 1018,1 hPa 0,0 l/m 0,0 km/h (0 Bft) O-NO 67 4,9 C 5,3 C 0,0 km/h (0 Bft)
21.05.2013 23:30 5,5 C 96 % 1018,1 hPa 0,0 l/m 0,2 km/h (0 Bft) O-NO 67 4,9 C 5,3 C 0,0 km/h (0 Bft)
21.05.2013 23:35 5,5 C 96 % 1018,1 hPa 0,0 l/m 0,2 km/h (0 Bft) NO 45 4,9 C 5,2 C 0,0 km/h (0 Bft)
21.05.2013 23:40 5,5 C 96 % 1018,1 hPa 0,0 l/m 0,0 km/h (0 Bft) O 90 4,9 C 5,3 C 0,0 km/h (0 Bft)
21.05.2013 23:45 5,5 C 96 % 1018,1 hPa 0,0 l/m 0,2 km/h (0 Bft) O-NO 67 4,9 C 5,3 C 0,0 km/h (0 Bft)
21.05.2013 23:50 5,5 C 96 % 1018,1 hPa 0,0 l/m 0,3 km/h (0 Bft) NO 45 4,9 C 5,4 C 1,6 km/h (1 Bft)
21.05.2013 23:55 5,6 C 96 % 1018,1 hPa 0,0 l/m 0,3 km/h (0 Bft) NO 45 5,0 C 5,4 C 0,0 km/h (0 Bft)
_ Min-Zeit 05:55 12:15 16:20 - 23:40 - - 05:55 05:55 23:55
Minimum _ 2,7 C 52 % 1010,4 hPa - 0,0 km/h (0 Bft) - - 2,4 C 2,1 C 0,0 km/h (0 Bft)
_ Max-Zeit 12:15 06:05 20:40 22:15 21:00 - - 08:10 15:55 21:05
Maximum _ 15,6 C 98 % 1018,3 hPa 0,7 l/m 7,6 km/h
SO (2 Bft)
- - 11,6 C 17,2 C 15,0 km/h
S (3 Bft)
Durchschnitt _ 8,5 C 87 % 1015,6 hPa #4,8 l/m 1,6 km/h (1 Bft) S - 6,3 C 9,1 C 2,2 km/h (1 Bft)